Location: *
(2.5500°S, 65.9667°W)
Time: 21:08:06
(UTC+00:00)

Cosmos 2173 Rocket - Pass Details

Date: 07 June 2022
Orbit: 945 x 1000 km, 83.0° (Epoch: 02 July)

Event Time Altitude Azimuth Distance (km) Brightness Sun altitude
Rises 22:41:28 0° 221° (SW) 3,642 7.3 -5.3°
Reaches altitude 10° 22:45:52 10° 251° (WSW) 2,680 7.1 -6.3°
Maximum altitude 22:48:01 12° 272° (W) 2,532 7.5 -6.8°
Drops below altitude 10° 22:50:10 10° 293° (WNW) 2,666 8.1 -7.3°
Sets 22:54:33 0° 323° (NW) 3,600 8.1 -8.3°
